Washington County, Minnesota, United States
Lat: 45.02N, Lon: 92.88W
Wx Zone: MNZ063
Local Info
Past Weather Observations for Today

NOTE: This archive is for the closest National Weather Service station to Washington County. Information may differ from the station used for current weather conditions.

Click here for Long-term Archive

Time Weather Temperature Dewpoint Humidity Pressure Winds Precip Visibility
22:53
Clear
66°F / 19°C 55°F / 13°C 68% 30.04 in
(1017 mb)
Calm - 10SM
21:53
Clear
70°F / 21°C 55°F / 13°C 60% 30.04 in
(1017 mb)
SSW 3.5 mph
(SSW 6 kph)
- 10SM
20:53
Clear
72°F / 22°C 55°F / 13°C 57% 30.04 in
(1017 mb)
SSW 4.6 mph
(SSW 7 kph)
- 10SM
19:53
Clear
75°F / 24°C 54°F / 12°C 47% 30.04 in
(1017 mb)
W 9.2 mph
(W 15 kph)
- 10SM
18:53
Clear
75°F / 24°C 54°F / 12°C 47% 30.04 in
(1017 mb)
W 15 mph
(W 24 kph)
- 10SM
17:53
Clear
79°F / 26°C 54°F / 12°C 42% 30.04 in
(1017 mb)
W 15 mph
(W 24 kph)
- 10SM
16:53
Clear
79°F / 26°C 54°F / 12°C 42% 30.04 in
(1017 mb)
NW 13.8 mph
(NW 22 kph)
- 10SM
15:53
Partly Cloudy
79°F / 26°C 54°F / 12°C 42% 30.04 in
(1017 mb)
NW 13.8 mph
(NW 22 kph)
- 10SM
14:53
Mostly Cloudy
81°F / 27°C 54°F / 12°C 39% 30.04 in
(1017 mb)
NW 13.8 mph
(NW 22 kph)
- 10SM
13:53
Mostly Cloudy
79°F / 26°C 57°F / 14°C 48% 30.06 in
(1018 mb)
NW 15 mph
(NW 24 kph)
- 10SM
12:53
Partly Cloudy
79°F / 26°C 57°F / 14°C 48% 30.06 in
(1018 mb)
N 9.2 mph
(N 15 kph)
- 10SM
11:53
Clear
79°F / 26°C 57°F / 14°C 48% 30.06 in
(1018 mb)
NNW 6.9 mph
(NNW 11 kph)
- 10SM
10:53
Clear
75°F / 24°C 57°F / 14°C 54% 30.09 in
(1019 mb)
Variable 3.5 mph
(Variable 6 kph)
- 10SM
09:53
Clear
73°F / 23°C 59°F / 15°C 61% 30.09 in
(1019 mb)
N 5.8 mph
(N 9 kph)
- 10SM
08:53
Clear
70°F / 21°C 61°F / 16°C 73% 30.09 in
(1019 mb)
Calm - 10SM
07:53
Clear
66°F / 19°C 59°F / 15°C 78% 30.09 in
(1019 mb)
Calm - 10SM
06:53
Clear
63°F / 17°C 57°F / 14°C 83% 30.09 in
(1019 mb)
Calm - 10SM
05:53
Clear
61°F / 16°C 57°F / 14°C 88% 30.09 in
(1019 mb)
NNW 3.5 mph
(NNW 6 kph)
- 10SM
04:53
Clear
59°F / 15°C 57°F / 14°C 94% 30.09 in
(1019 mb)
Calm - 10SM
03:53
Clear
61°F / 16°C 59°F / 15°C 94% 30.06 in
(1018 mb)
Calm - 10SM
02:53
Clear
59°F / 15°C 57°F / 14°C 94% 30.06 in
(1018 mb)
SSW 3.5 mph
(SSW 6 kph)
- 10SM
01:53
Clear
61°F / 16°C 59°F / 15°C 94% 30.06 in
(1018 mb)
Calm - 10SM
00:53
Clear
61°F / 16°C 59°F / 15°C 94% 30.06 in
(1018 mb)
Calm - 10SM
Time Weather Temperature Dewpoint Humidity Pressure Winds Precip Visibility


Weather for websites

WeatherForYou.com, LLC is not responsible for any damages or problems caused by this service. Current weather conditions are obtained from the closest station including government and personal stations which may have varying degrees of accuracy. Weather forecasts are derived from the NOAA NDFD. Like all things, this site belongs to Jesus Christ... He just trusts me to maintain it. If you have any questions or comments email webmaster@weatherforyou.com

Copyright © 2014, WeatherForYou.com LLC. All rights reserved.